Tracking 35331 objects as of 14-Sep-2026
HD Live streaming from Space Station
objects crossing your sky now

SL-4 R/B


SL-4 R/B is no longer on orbit


NORAD ID: 15646
Int'l Code: 1985-029B
Launch date: April 16, 1985
Source: Commonwealth of Independent States (former USSR) (CIS)
Launch site: PLESETSK MISSILE AND SPACE COMPLEX (PKMTR)
Decay date: 1985-05-10

Note: This is a ROCKET BODY
Your satellite tracking list
Your tracking list is empty




NASA's NSSDC Master Catalog

Two Line Element Set (TLE):
1 15646U 85029  B 85130.66586164  .12276321 +39895-4 +28838-3 0  9999
2 15646 062.8043 318.7020 0007150 101.5120 258.9011 16.45840661003854
Source of the keplerian elements: AFSPC